Wind_Speed
28 28 29 30 30 29 29 27 27 27 28 28 29 29 28 28 28 26 25 25 22 22 23 23 24 23 23 25 24 25 25 25 25 26 26 26 25 26 25 26 26 26 27
28 30 30 31 31 31 28 27 28 28 29 29 30 30 29 26 26 25 24 23 22 22 22 23 24 23 22 23 24 24 25 26 26 26 27 28 28 29 29 29 29 29 29
28 29 30 31 32 32 30 29 29 29 28 30 30 32 31 26 24 24 24 22 21 22 21 22 23 22 22 22 23 24 25 25 26 27 29 30 30 30 30 30 31 30 30
29 30 30 31 31 31 31 30 30 29 29 30 31 31 30 29 26 23 22 22 21 20 20 19 19 20 20 22 23 24 25 26 26 28 29 30 30 31 32 31 31 31 31
28 28 29 30 30 30 30 29 29 29 28 28 29 29 29 29 28 24 21 20 20 19 18 17 16 18 18 20 21 23 25 26 27 28 29 30 31 32 33 34 33 33 34
27 27 27 27 28 27 27 27 27 28 29 28 27 27 27 27 27 25 22 20 19 18 17 17 18 18 18 19 20 21 22 24 26 27 29 31 31 32 33 34 34 35 35
25 25 25 25 24 25 25 25 26 26 27 26 26 27 27 26 26 26 24 22 21 20 20 19 19 20 20 21 21 22 23 25 26 28 29 30 31 31 32 32 33 34 35
22 22 22 23 23 23 23 24 24 24 24 24 24 25 25 25 25 26 25 23 22 22 23 22 22 21 21 22 22 23 24 24 25 26 27 29 30 30 30 32 33 34 36
18 20 21 22 22 21 21 22 23 23 23 24 24 24 22 22 23 25 24 22 21 21 21 22 21 21 22 22 22 23 23 24 25 26 27 28 29 30 31 32 32 33 33
16 18 19 20 20 19 19 20 21 22 22 23 23 23 23 23 22 23 24 23 22 22 21 20 21 22 22 21 22 23 24 25 25 26 27 27 28 28 30 30 30 31 31
14 16 18 19 19 18 18 18 19 20 21 21 22 22 22 22 22 22 23 23 23 22 21 20 20 21 21 22 22 22 22 23 23 24 25 26 26 28 28 29 29 30 31
13 15 17 18 18 18 18 17 17 18 19 20 20 21 21 21 21 21 22 22 22 21 21 21 21 21 21 22 22 23 23 23 24 24 25 26 27 28 28 28 29 30 32
13 15 16 17 17 18 18 18 18 18 18 18 19 19 20 20 20 21 21 20 20 21 21 21 21 21 21 22 22 23 23 24 24 25 25 26 27 28 28 29 30 31 32
15 15 16 17 17 17 17 18 18 17 18 17 17 18 18 19 20 20 21 21 21 21 21 21 21 21 21 22 22 23 24 25 25 25 26 26 27 28 29 30 31 32 32
16 17 17 17 18 18 18 18 17 17 17 17 17 17 18 18 19 20 20 20 21 21 21 21 21 22 23 23 24 24 25 25 25 26 26 27 28 29 29 30 31 31 32
16 17 17 17 18 18 18 18 18 17 17 17 17 17 17 18 18 19 19 20 20 20 21 21 21 21 22 22 23 23 24 24 25 25 26 26 27 28 28 29 29 30 30
17 17 18 18 18 18 17 17 17 17 17 17 18 18 17 17 18 18 18 17 17 18 19 19 19 19 19 20 21 22 22 23 24 25 25 26 27 27 27 28 28 28 28
17 17 16 16 16 16 15 15 16 16 15 16 16 16 16 16 16 16 16 16 16 17 17 17 18 19 20 20 21 21 22 23 23 24 25 25 26 26 25 25 25 25 25
16 15 14 14 14 13 13 13 13 13 13 13 13 13 13 14 14 14 14 15 16 17 17 17 18 18 19 20 19 19 20 21 22 22 23 24 24 24 24 23 23 23 23
13 11 11 10 10 10 10 10 9 9 10 10 11 11 11 11 12 13 14 15 15 16 16 16 17 16 17 17 18 18 19 19 19 20 21 21 22 22 22 21 21 21 21
9 8 8 8 7 7 7 6 6 6 6 7 7 8 8 9 10 11 11 13 14 14 15 15 15 15 15 15 16 16 17 17 17 18 18 18 18 18 19 19 20 20 20
7 6 5 5 5 5 5 5 4 4 4 4 5 5 5 6 6 7 8 9 10 11 12 12 12 13 13 13 14 14 15 15 15 15 15 15 15 16 17 17 18 18 18
5 3 3 3 3 4 4 4 3 3 3 3 3 3 4 4 5 6 7 7 8 9 9 10 10 10 10 10 11 11 12 12 12 12 12 13 14 15 15 15 15 15 15
4 2 1 2 2 3 3 2 3 2 2 2 2 2 2 3 3 4 5 5 5 6 6 7 7 7 7 8 8 8 9 9 9 10 11 12 12 13 13 13 13 13 13
4 2 0 2 2 2 2 2 2 2 2 2 2 1 1 1 2 2 2 2 3 3 4 4 5 5 5 5 6 6 6 6 7 9 10 10 11 11 11 12 12 12 12
5 3 2 3 2 2 3 2 2 2 2 2 2 1 1 1 2 2 2 1 1 1 2 2 3 3 3 3 4 4 5 6 7 8 9 9 9 10 10 10 10 10 10
Wind_Direction
278 276 274 271 272 272 270 267 264 261 261 259 260 257 256 255 253 247 250 249 248 245 243 244 241 241 240 242 245 245 244 243 244 246 249 251 254 256 258 259 261 263 265
276 277 275 272 272 273 272 267 265 263 262 260 258 259 259 256 252 249 249 249 246 246 245 244 243 239 242 248 248 248 246 245 246 248 249 252 256 259 260 261 262 264 266
273 275 277 275 274 274 273 272 268 264 262 261 259 260 261 258 256 250 247 249 248 244 243 244 243 240 242 246 247 250 247 246 248 250 251 253 256 260 262 263 264 265 267
274 276 275 274 273 273 270 271 268 264 264 263 259 259 259 257 256 253 250 251 251 252 249 249 245 243 243 245 247 249 248 250 250 251 252 253 256 261 262 264 266 266 270
276 274 271 270 271 273 271 269 268 264 264 265 261 260 259 257 255 255 249 248 252 253 251 251 251 247 249 251 252 253 252 253 253 253 253 255 258 261 263 265 268 269 272
277 272 269 269 271 271 270 268 269 266 265 265 263 259 258 257 255 254 254 253 252 250 253 254 253 254 257 258 257 256 256 255 254 256 257 258 260 263 264 265 267 270 272
273 272 270 269 271 272 270 270 270 268 265 263 262 259 258 256 255 254 252 253 251 251 252 254 256 256 256 258 260 259 259 258 258 260 260 261 263 265 266 267 268 270 272
270 271 271 270 271 272 270 269 271 268 266 262 259 257 258 257 255 254 253 253 254 254 255 256 257 257 258 259 262 263 262 263 263 263 264 264 265 266 267 268 269 271 273
269 269 269 270 272 272 272 271 270 269 268 266 263 260 260 258 255 253 255 255 258 257 255 256 258 259 261 263 264 262 262 263 263 263 265 266 266 266 268 271 274 275 276
273 270 269 268 273 275 273 272 269 269 268 266 266 264 263 261 260 258 256 256 259 257 257 261 262 263 265 267 265 262 262 263 265 266 267 268 269 271 273 275 276 276 277
279 273 272 271 273 273 274 273 271 270 268 265 264 262 262 261 259 259 259 258 258 260 261 262 265 266 267 268 267 265 266 267 268 269 271 272 272 273 274 275 275 278 280
282 279 276 274 272 270 272 272 270 268 265 262 261 259 258 257 256 256 257 258 259 261 262 263 265 266 268 270 270 270 270 269 271 273 274 274 276 276 277 277 279 281 282
285 281 279 277 273 271 272 273 270 267 264 262 258 256 253 254 255 255 256 257 257 260 263 265 265 266 268 268 269 270 269 271 272 274 276 278 279 278 279 281 283 284 286
288 285 281 278 275 272 271 272 268 265 263 260 256 253 253 255 256 255 256 258 259 259 261 263 264 266 268 269 269 270 272 272 273 274 276 277 278 279 281 283 284 285 286
292 288 284 279 274 272 271 269 266 264 263 259 255 253 254 256 256 255 257 259 260 260 260 262 264 265 268 269 271 271 272 273 273 274 276 278 279 281 282 284 285 286 286
291 288 284 278 275 273 270 268 266 264 260 258 258 258 258 256 255 256 259 260 260 260 260 261 264 266 268 270 271 273 273 273 276 277 279 280 281 283 284 285 285 286 286
292 288 282 278 276 274 269 266 265 262 259 258 257 260 261 260 259 260 261 261 262 263 264 264 264 266 268 271 272 273 274 276 277 278 279 281 281 282 284 284 284 285 286
294 289 283 279 276 273 267 263 259 256 258 259 257 256 255 258 258 258 259 259 261 264 265 266 268 270 271 271 272 273 273 275 276 278 279 280 281 283 283 283 284 285 285
295 288 282 279 275 269 264 258 253 255 259 258 255 253 251 251 252 254 254 258 259 259 260 264 264 266 267 268 271 272 275 277 279 280 280 281 282 283 283 283 284 286 287
296 287 280 271 265 260 254 251 254 253 255 255 252 249 248 249 249 252 256 257 257 259 260 262 264 265 268 269 271 273 275 277 280 283 283 283 283 283 283 283 284 286 287
295 286 276 263 254 252 249 248 248 248 250 250 247 247 247 247 251 254 257 259 259 259 260 262 262 263 265 268 269 272 275 280 284 286 286 286 286 286 286 286 287 287 288
293 285 272 254 243 242 237 232 231 232 236 236 234 239 248 253 257 259 261 262 260 261 261 261 262 263 267 270 273 278 281 284 287 290 290 290 291 291 291 291 292 292 292
305 280 267 234 223 216 209 207 205 211 222 226 230 243 254 257 260 267 267 268 268 267 265 266 267 269 273 278 281 284 287 289 292 295 296 295 295 296 297 298 298 296 296
336 309 249 218 200 195 196 194 192 203 218 220 232 245 254 265 274 279 277 274 270 270 273 276 279 280 282 284 287 291 294 297 300 303 304 305 305 305 305 304 302 301 301
355 358 212 188 180 183 195 192 196 215 216 212 217 224 261 311 317 307 302 292 288 290 289 289 288 288 291 297 301 305 309 311 312 315 316 315 315 314 312 311 309 308 308
33 48 86 124 140 149 161 170 177 173 160 162 157 147 91 25 18 13 13 10 343 336 326 319 316 316 320 327 331 331 329 329 330 330 329 329 329 328 327 325 322 319 317
Height
5814 5814 5813 5812 5811 5811 5812 5814 5814 5814 5815 5816 5816 5816 5818 5819 5819 5820 5821 5822 5823 5823 5825 5826 5829 5830 5831 5834 5835 5836 5838 5840 5841 5843 5844 5844 5846 5847 5847 5848 5848 5849 5849
5808 5807 5806 5805 5805 5803 5804 5806 5807 5807 5808 5810 5810 5811 5810 5811 5813 5814 5815 5816 5817 5818 5819 5821 5823 5825 5826 5828 5830 5831 5832 5834 5835 5836 5837 5838 5840 5840 5841 5841 5842 5842 5843
5801 5801 5800 5799 5799 5798 5798 5799 5799 5801 5802 5803 5803 5804 5803 5804 5806 5807 5808 5809 5811 5813 5814 5816 5817 5819 5821 5822 5824 5825 5826 5828 5829 5830 5831 5832 5833 5833 5834 5834 5835 5835 5836
5795 5794 5793 5792 5792 5791 5791 5792 5792 5793 5794 5795 5796 5797 5798 5799 5801 5802 5803 5804 5806 5807 5809 5810 5812 5813 5815 5817 5818 5819 5821 5822 5822 5823 5825 5826 5827 5827 5827 5827 5827 5828 5828
5788 5787 5786 5786 5785 5785 5784 5785 5786 5787 5787 5788 5789 5791 5792 5794 5796 5797 5799 5800 5801 5802 5804 5805 5807 5808 5809 5811 5812 5814 5815 5816 5816 5817 5818 5818 5819 5820 5821 5820 5820 5820 5820
5781 5780 5779 5779 5779 5778 5778 5779 5781 5781 5782 5782 5784 5785 5787 5788 5790 5792 5794 5795 5796 5798 5799 5800 5802 5802 5804 5805 5806 5807 5808 5809 5810 5810 5811 5811 5812 5812 5813 5813 5812 5812 5812
5775 5774 5773 5773 5773 5773 5773 5774 5775 5775 5776 5777 5778 5779 5781 5783 5785 5787 5789 5790 5791 5792 5794 5795 5796 5797 5798 5799 5800 5801 5802 5802 5803 5803 5804 5804 5805 5805 5805 5805 5804 5804 5803
5768 5768 5768 5767 5768 5767 5767 5768 5768 5769 5770 5771 5772 5774 5775 5777 5779 5781 5783 5784 5785 5787 5788 5789 5790 5791 5792 5793 5794 5795 5795 5796 5796 5796 5797 5797 5797 5797 5797 5797 5797 5796 5795
5763 5763 5763 5763 5762 5762 5762 5762 5763 5764 5764 5765 5766 5767 5769 5771 5772 5774 5776 5778 5779 5781 5782 5783 5784 5785 5786 5786 5787 5787 5788 5789 5789 5789 5789 5790 5790 5790 5790 5789 5789 5788 5787
5759 5759 5758 5758 5758 5757 5757 5757 5757 5758 5759 5760 5761 5762 5764 5765 5767 5769 5770 5771 5774 5775 5776 5777 5778 5779 5780 5780 5781 5781 5781 5781 5782 5782 5782 5783 5782 5782 5782 5782 5781 5780 5779
5754 5754 5754 5754 5753 5753 5752 5752 5752 5752 5753 5754 5755 5757 5758 5760 5761 5763 5764 5766 5767 5769 5770 5771 5772 5773 5774 5774 5774 5774 5774 5775 5775 5775 5775 5775 5775 5775 5775 5774 5773 5772 5770
5750 5750 5749 5748 5748 5748 5747 5747 5747 5747 5748 5749 5750 5751 5752 5754 5755 5757 5758 5760 5761 5763 5764 5765 5766 5767 5767 5767 5768 5768 5768 5768 5769 5769 5768 5768 5768 5768 5767 5766 5765 5763 5762
5747 5746 5744 5743 5743 5743 5742 5742 5742 5743 5743 5744 5744 5745 5747 5748 5750 5751 5752 5754 5755 5756 5757 5759 5760 5760 5761 5761 5761 5762 5762 5762 5762 5762 5761 5761 5760 5759 5759 5757 5756 5755 5753
5742 5741 5739 5738 5738 5737 5737 5737 5737 5737 5738 5738 5739 5740 5741 5743 5744 5745 5747 5748 5749 5750 5751 5752 5753 5754 5754 5754 5755 5755 5755 5755 5754 5754 5754 5753 5752 5751 5750 5749 5747 5745 5743
5737 5735 5734 5733 5732 5732 5731 5731 5731 5732 5732 5733 5734 5734 5736 5737 5738 5740 5741 5742 5743 5743 5745 5746 5747 5747 5748 5748 5748 5748 5748 5747 5747 5746 5746 5745 5744 5742 5741 5740 5738 5736 5734
5731 5729 5728 5727 5726 5726 5725 5725 5725 5726 5727 5727 5728 5729 5730 5731 5733 5734 5735 5736 5736 5737 5738 5739 5740 5740 5741 5741 5741 5741 5741 5740 5739 5739 5738 5737 5736 5734 5733 5731 5729 5727 5725
5725 5723 5722 5721 5720 5719 5719 5719 5720 5720 5721 5722 5723 5724 5725 5726 5727 5728 5729 5729 5730 5731 5732 5733 5733 5734 5734 5734 5734 5734 5734 5733 5732 5732 5731 5729 5728 5726 5725 5723 5721 5719 5717
5719 5717 5716 5715 5714 5713 5713 5714 5714 5715 5716 5717 5718 5719 5720 5721 5721 5722 5723 5724 5725 5726 5727 5727 5728 5728 5728 5728 5728 5728 5727 5726 5725 5724 5723 5722 5720 5718 5717 5715 5713 5711 5709
5714 5712 5710 5709 5709 5708 5709 5709 5710 5711 5711 5712 5713 5714 5715 5716 5717 5718 5719 5719 5720 5721 5721 5721 5722 5722 5722 5722 5722 5722 5721 5720 5718 5717 5716 5714 5713 5711 5709 5708 5706 5704 5702
5708 5706 5705 5705 5705 5705 5705 5706 5706 5707 5707 5708 5709 5710 5711 5712 5713 5714 5714 5715 5715 5716 5716 5716 5717 5717 5717 5717 5717 5716 5715 5714 5712 5711 5709 5707 5706 5704 5703 5701 5699 5698 5696
5704 5703 5702 5701 5701 5702 5702 5703 5703 5704 5705 5705 5706 5706 5707 5708 5709 5710 5710 5710 5710 5711 5711 5711 5711 5712 5712 5711 5711 5710 5709 5708 5706 5705 5703 5701 5700 5698 5696 5695 5693 5691 5689
5700 5700 5699 5699 5699 5700 5700 5701 5701 5702 5702 5703 5703 5704 5705 5705 5706 5706 5706 5706 5707 5707 5707 5707 5707 5707 5707 5706 5706 5705 5704 5702 5701 5699 5698 5696 5695 5693 5691 5689 5687 5686 5684
5698 5697 5697 5697 5698 5698 5699 5700 5700 5700 5701 5701 5702 5702 5703 5703 5704 5704 5704 5703 5703 5703 5703 5703 5703 5703 5703 5702 5701 5700 5699 5698 5697 5695 5694 5692 5690 5689 5687 5685 5683 5681 5679
5697 5696 5696 5696 5696 5697 5698 5698 5699 5700 5700 5700 5701 5701 5702 5702 5702 5702 5701 5701 5701 5700 5700 5700 5700 5700 5699 5699 5698 5697 5696 5695 5693 5692 5690 5689 5687 5685 5683 5681 5679 5677 5675
5696 5695 5695 5695 5695 5696 5697 5698 5698 5699 5699 5700 5700 5701 5701 5701 5701 5700 5700 5699 5699 5699 5698 5698 5698 5697 5697 5696 5696 5695 5694 5692 5691 5690 5688 5686 5684 5682 5680 5678 5676 5674 5672
5696 5695 5694 5694 5695 5696 5696 5697 5698 5698 5699 5699 5700 5700 5700 5700 5700 5699 5699 5699 5698 5698 5697 5697 5697 5696 5696 5695 5694 5693 5692 5691 5689 5688 5686 5684 5682 5680 5678 5676 5674 5672 5670